Home > Weather > Ostrava > Past weeks

Flag for Czech Republic Weather for the Past 2 Weeks in Ostrava, Czech Republic

Now
54 °F

Passing clouds.


Feels Like: 49 °F
Forecast: 38 / 51 °F
Wind: 16 mph from South

Location: Ostrava / Mosnov

Current Time: Feb 9, 2016 at 4:02:51 PM

Latest Report: Feb 9, 2016 at 3:30 PM


Visibility: N/A

Pressure: 29.53 "Hg

Humidity: 54%

Dew point: 37 °F

Location of OstravaLocation

Historic Weather in Ostrava — Graph

°F

Ostrava Temperature Yesterday

Maximum temperature yesterday: 52 °F (at 7:30 PM)
Minimum temperature yesterday: 43 °F (at 3:00 AM)
Average temperature yesterday: 47 °F

High & Low Weather Summary for the Past Weeks

 TemperatureHumidityPressure
High55 °F (Feb 9, 2:00 PM)100% (Jan 25, 4:00 PM)30.33 "Hg (Jan 25, 4:00 PM)
Low30 °F (Jan 29, 1:30 AM)47% (Feb 9, 12:30 PM)29.59 "Hg (Feb 9, 2:30 PM)
Average42 °F77%30.05 "Hg
* Reported Jan 25 3:00 PM — Feb 9 3:00 PM, Ostrava, Weather by CustomWeather, © 2016

Note: Actual official high and low records may vary slightly from our data, if they occured in-between our weather recording intervals... More about our weather records

Advertising

Ostrava Weather History for the Previous 24 Hours

 ConditionsComfort  
Time TempWeatherWind HumidityBarometerVisibility
3:00 PM
Tue, Feb 9
55 °FPassing clouds.17 mph47%29.59 "HgN/A
2:30 PM55 °FPassing clouds.18 mph47%29.59 "HgN/A
2:00 PM55 °FPassing clouds.20 mph47%29.62 "HgN/A
1:30 PM54 °FPassing clouds.24 mph51%29.62 "HgN/A
1:00 PM54 °FPassing clouds.23 mph51%29.65 "HgN/A
12:30 PM54 °FPassing clouds.24 mph47%29.68 "HgN/A
12:00 PM54 °FPassing clouds.23 mph51%29.68 "HgN/A
11:00 AM52 °FSunny.24 mph50%29.74 "Hg10 mi
10:30 AM50 °FPassing clouds.24 mph58%29.74 "HgN/A
10:00 AM50 °FCool.23 mph62%29.74 "HgN/A
9:00 AM46 °FPartly sunny.10 mph71%29.77 "HgN/A
8:30 AM46 °FPartly sunny.13 mph66%29.77 "HgN/A
8:00 AM46 °FScattered clouds.16 mph66%29.74 "HgN/A
7:00 AM45 °FPassing clouds.20 mph66%29.74 "HgN/A
6:30 AM45 °FPassing clouds.17 mph71%29.74 "HgN/A
6:00 AM46 °FClear.15 mph62%29.74 "Hg10 mi
5:30 AM45 °FClear.14 mph66%29.74 "Hg10 mi
5:00 AM45 °FClear.20 mph66%29.74 "Hg10 mi
4:30 AM46 °FClear.21 mph62%29.71 "Hg10 mi
4:00 AM46 °FClear.22 mph62%29.71 "Hg10 mi
3:30 AM46 °FClear.21 mph66%29.71 "Hg10 mi
3:00 AM46 °FClear.22 mph66%29.71 "Hg10 mi
2:30 AM46 °FClear.20 mph71%29.71 "Hg10 mi
2:00 AM46 °FClear.21 mph71%29.71 "Hg10 mi
1:30 AM46 °FPassing clouds.20 mph76%29.71 "HgN/A
1:00 AM46 °FPassing clouds.20 mph76%29.71 "HgN/A
12:30 AM48 °FPassing clouds.20 mph82%29.71 "HgN/A
12:00 AM50 °FPassing clouds.16 mph71%29.68 "HgN/A
11:00 PM
Mon, Feb 8
48 °FLight rain. Passing clouds.23 mph82%29.71 "HgN/A
10:30 PM52 °FClear.22 mph62%29.65 "Hg10 mi
10:00 PM52 °FClear.22 mph62%29.65 "Hg10 mi
9:30 PM50 °FClear.18 mph67%29.65 "Hg10 mi
9:00 PM52 °FClear.20 mph62%29.65 "Hg10 mi
8:30 PM50 °FClear.17 mph67%29.65 "Hg10 mi
8:00 PM52 °FClear.21 mph62%29.65 "Hg10 mi
7:30 PM52 °FClear.21 mph62%29.65 "Hg10 mi
7:00 PM50 °FClear.18 mph67%29.68 "Hg10 mi
6:30 PM50 °FClear.18 mph67%29.68 "Hg10 mi
6:00 PM50 °FClear.22 mph67%29.68 "Hg10 mi
5:30 PM50 °FClear.21 mph67%29.71 "Hg10 mi
5:00 PM50 °FClear.18 mph62%29.71 "Hg10 mi
4:30 PM48 °FSunny.20 mph66%29.71 "Hg10 mi
4:00 PM48 °FSunny.18 mph71%29.71 "Hg10 mi
Weather by CustomWeather, © 2016

See weather overviewHow to use our weather pages